TimeCST,TemperatureF,Dew PointF,Humidity,Sea Level PressureIn,VisibilityMPH,Wind Direction,Wind SpeedMPH,Gust SpeedMPH,PrecipitationIn,Events,Conditions,WindDirDegrees,DateUTC
12:51 AM,61.0,21.9,22,29.52,10.0,West,15.0,28.8,N/A,,Clear,270,2013-03-04 06:51:00
1:51 AM,57.9,24.1,27,29.54,10.0,West,16.1,23.0,N/A,,Clear,280,2013-03-04 07:51:00
3:51 AM,55.0,25.0,31,29.56,10.0,West,10.4,-,N/A,,Clear,280,2013-03-04 09:51:00
4:51 AM,53.1,26.1,35,29.58,10.0,SW,3.5,-,N/A,,Clear,230,2013-03-04 10:51:00
6:51 AM,48.9,25.0,39,29.62,10.0,SW,6.9,-,N/A,,Clear,230,2013-03-04 12:51:00
7:51 AM,48.9,24.1,38,29.63,10.0,WSW,4.6,-,N/A,,Clear,250,2013-03-04 13:51:00
8:51 AM,54.0,26.1,34,29.65,10.0,West,4.6,-,N/A,,Clear,270,2013-03-04 14:51:00
9:51 AM,60.1,28.0,30,29.64,10.0,West,10.4,18.4,N/A,,Clear,280,2013-03-04 15:51:00
10:51 AM,62.1,33.1,34,29.65,10.0,NNE,10.4,20.7,N/A,,Clear,30,2013-03-04 16:51:00
11:51 AM,63.0,33.1,33,29.63,10.0,NNE,13.8,21.9,N/A,,Clear,30,2013-03-04 17:51:00
2:51 PM,66.0,35.1,32,29.60,10.0,NE,18.4,24.2,N/A,,Clear,40,2013-03-04 20:51:00
3:51 PM,64.9,34.0,32,29.60,10.0,ENE,17.3,23.0,N/A,,Clear,60,2013-03-04 21:51:00
4:51 PM,63.0,36.0,37,29.64,10.0,ENE,13.8,24.2,N/A,,Clear,60,2013-03-04 22:51:00
5:51 PM,57.9,35.1,42,29.71,10.0,NNE,20.7,27.6,N/A,,Clear,30,2013-03-04 23:51:00
6:51 PM,54.0,35.1,49,29.81,10.0,NNE,24.2,32.2,N/A,,Overcast,30,2013-03-05 00:51:00
7:51 PM,48.9,33.1,54,29.90,10.0,NNE,29.9,43.7,N/A,,Partly Cloudy,30,2013-03-05 01:51:00
8:51 PM,41.0,30.0,65,29.99,10.0,NNE,33.4,42.6,N/A,,Overcast,20,2013-03-05 02:51:00
9:25 PM,39.2,30.2,70,30.08,10.0,NNE,32.2,46.0,N/A,,Overcast,20,2013-03-05 03:25:00
9:51 PM,39.0,30.0,70,30.09,10.0,North,32.2,41.4,N/A,,Overcast,10,2013-03-05 03:51:00
10:51 PM,37.9,27.0,65,30.16,10.0,North,28.8,38.0,N/A,,Overcast,10,2013-03-05 04:51:00
11:00 PM,37.4,26.6,65,30.19,10.0,NNE,25.3,36.8,N/A,,Overcast,20,2013-03-05 05:00:00
11:09 PM,37.4,28.4,70,30.19,10.0,North,27.6,38.0,N/A,,Overcast,10,2013-03-05 05:09:00
11:51 PM,36.0,28.0,73,30.20,10.0,North,16.1,29.9,N/A,,Overcast,360,2013-03-05 05:51:00